Location: *
(29.1167°S, 130.0000°E)
Time: 05:31:58
(UTC+00:00)

ADEOS Rocket - Pass Details

Date: 21 July 2019
Orbit: 858 x 1307 km, 98.7° (Epoch: 19 August)

Event Time Altitude Azimuth Distance (km) Brightness Sun altitude
Exits shadow 10:50:08 28° 171° (S) 1,859 4.3 -27.5°
Drops below altitude 10° 10:53:15 10° 183° (S) 2,948 5.4 -28.2°
Sets 10:56:00 0° 186° (S) 3,979 6.2 -28.8°
